Regional Weather Roundup
Issued by NWS New Orleans/Baton Rouge, LA

Home | Current Version | Previous Version | Text Only | Print | Product List | Glossary On
Versions: 1 2 3 4 5 6 7 8 9 10 11 12 13 14 15 16 17 18 19 20 21 22 23 24 25 26 27 28 29 30 31 32 33 34 35 36 37 38 39 40 41 42 43 44 45 46 47 48 49 50
000
ASUS44 KLIX 221214
RWRLIX
NEW ORLEANS REGIONAL WEATHER ROUNDUP
NATIONAL WEATHER SERVICE NEW ORLEANS LA
700 AM CDT THU JUN 22 2017

NOTE: "FAIR" INDICATES FEW OR NO CLOUDS BELOW 12,000 FEET WITH NO
      SIGNIFICANT WEATHER AND/OR OBSTRUCTIONS TO VISIBILITY.
      SKY/WX - SKY CONDITION AND SIGNIFICANT WEATHER.
      TMP - AIR TEMPERATURE.     DP    - DEWPOINT TEMPERATURE.
      RH  - RELATIVE HUMIDITY.   PRES  - PRESSURE.
      HI  - HEAT INDEX.          WCI   - WIND CHILL INDEX.

*  THESE STATIONS ARE NOT NWS OR FAA STATIONS AND ARE NOT UNDER
   NWS QUALITY CONTROL.

LAZ038-040-048-061>063-065>067-069-221300-
SOUTHEAST LOUISIANA

CITY           SKY/WX    TMP DP  RH WIND       PRES   REMARKS
N.O. INTL ARPT PTSUNNY   80  76  87 SE18G28   29.76R
6HR MIN TEMP:  78; 6HR MAX TEMP:  80; 6HR PCP:  0.19;

N.O. LAKEFRONT MOSUNNY   81  76  84 S18       29.78R
6HR MIN TEMP:  80; 6HR MAX TEMP:  81;

N.O. DOWNTOWN*   N/A     81  76  84 S21G30      N/A
6HR MIN TEMP:  80; 6HR MAX TEMP:  81;

RESERVE*       CLOUDY    81  76  84 S15       29.75R
6HR MIN TEMP:  80; 6HR MAX TEMP:  81; 6HR PCP:  0.10;

SLIDELL        CLOUDY    80  76  87 SE13      29.79R
6HR MIN TEMP:  80; 6HR MAX TEMP:  81; 6HR PCP: TRACE;

BATON ROUGE    LGT RAIN  78  76  93 SE12G17   29.71R
6HR MIN TEMP:  77; 6HR MAX TEMP:  79; 6HR PCP:  0.06;

BOOTHVILLE     LGT RAIN  79  77  94 S29G37    29.82R FOG
6HR MIN TEMP:  79; 6HR MAX TEMP:  81; 6HR PCP:  0.06;

BELLE CHASSE   PTSUNNY   81  78  91 S22G31    29.77R
BOGALUSA*      PTSUNNY   80  74  80 SE10G17   29.81R
6HR MIN TEMP:  79; 6HR MAX TEMP:  81;

GALLIANO*      CLOUDY    80  74  82 S14G22    29.77R
6HR MIN TEMP:  80; 6HR MAX TEMP:  81;

NEW ROADS*       N/A     78  74  88 SE13G20   29.69R
6HR MIN TEMP:  77; 6HR MAX TEMP:  79; 6HR PCP:  0.05;

GONZALES*      DRIZZLE   79  76  88 SE10G21   29.71R
6HR MIN TEMP:  78; 6HR MAX TEMP:  80; 6HR PCP:  0.07;

HAMMOND*       CLOUDY    79  72  78 SE13G22   29.77R
HOUMA*         CLOUDY    81  77  89 SE17G23   29.75R
PORT FOURCHON* NOT AVBL

$$

MSZ070-080>082-221300-
SOUTHERN MISSISSIPPI

CITY           SKY/WX    TMP DP  RH WIND       PRES   REMARKS
MCCOMB         CLOUDY    77  74  90 SE10G20   29.77R
6HR MIN TEMP:  76; 6HR MAX TEMP:  77; 6HR PCP:  0.04;

GULFPORT       CLOUDY    79  75  87 S14       29.83R
6HR MIN TEMP:  77; 6HR MAX TEMP:  81; 6HR PCP:  0.32;

BILOXI         LGT RAIN  77  75  94 S17G26    29.84R FOG
6HR MIN TEMP:  78; 6HR MAX TEMP:  81; 6HR PCP:  0.31;

PASCAGOULA     LGT RAIN  81  75  82 S15G28    29.85R
6HR MIN TEMP:  80; 6HR MAX TEMP:  82; 6HR PCP: TRACE;

STENNIS ARPT*  PTSUNNY   79  77  94 S14G21    29.82

$$

COASTAL OBSERVATIONS
LAKE AND NEARSHORE STATIONS

STATION/POSITION TIME  TEMP    WIND        PRES    WAVE
                       AIR SEA DIR/SP/G            HT/PER
                 (UTC) (F)     (DEG/KT/KT) (MB)    (FT/S)
PASCAGOULA       1148   81     170/ 15/ 26 1010.6
WAVELAND YACHT   1148   79 79  170/ 16/ 20 1009.6
GRAND ISLE       1148   81 81  190/ 13/ 21 1008.8
SOUTHWEST PASS   1148   79     180/ 26/ 32   N/A
NEW CANAL        1148   81 80  170/  9/ 19 1008.0
SHELL BEACH      1148   80 81  160/ 17/ 21 1009.0

OFFSHORE STATIONS

STATION/POSITION TIME  TEMP    WIND        PRES    WAVE
                       AIR SEA DIR/SP/G            HT/PER
                 (UTC) (F)     (DEG/KT/KT) (MB)    (FT/S)
64 S DAUPHIN ISL 1150   81 81  160/ 23/ 31 1011.1   10/ 8

$$




USA.gov is the U.S. government's official web portal to all federal, state and local government web resources and services.